Location: The C. Gantt Observatory
(33.6981°N, 81.6836°W)
Time: 10:02:03
(UTC-04:00)

Daily predictions for brighter satellites

Satellite Brightness Start Highest point End
(mag) Time Altitude Azimuth Time Altitude Azimuth Time Altitude Azimuth
Meteor 2-5 Rocket 4.2 19:57:45 10° NNW 20:03:30 72° W 20:09:21 10° S
Meteor 1-4 Rocket 3.4 20:03:33 10° SSE 20:06:30 27° E 20:09:28 10° NE
Helios 1B rocket 4.1 20:08:15 10° ENE 20:10:18 13° E 20:12:21 10° SE
Spot 2 Rocket 4.4 20:07:59 10° SE 20:12:22 29° ENE 20:16:45 10° N
In-Cosmos 22 4.3 20:07:30 10° N 20:12:36 47° E 20:17:40 10° SSE
Cosmos 1378 3.6 20:10:48 10° NNW 20:14:31 66° W 20:18:12 10° S
Cosmos 2344 4.4 20:11:26 10° SW 20:18:56 56° NW 20:27:07 10° NNE
Cosmos 1544 3.2 20:15:41 10° S 20:19:13 53° E 20:22:48 10° NNE
Cosmos 1867 3.6 20:15:07 10° SSW 20:20:33 83° ESE 20:26:02 10° NNE
Cosmos 1934 Rocket 4.2 20:15:00 10° S 20:21:08 77° W 20:27:13 10° N
Cosmos 1076 Rocket 4.3 20:18:13 10° NNE 20:21:55 29° ENE 20:25:36 10° SE
H-2A R/B (2) 2.1 20:19:28 10° WSW 20:22:04 39° S 20:26:56 11° ESE
FENGYUN 3A 3.7 20:17:09 10° SSE 20:22:28 61° ENE 20:27:46 10° N
CZ-2D R/B 4.5 20:19:31 10° SE 20:22:37 23° ENE 20:25:43 10° NNE
Cosmos 1805 3.2 20:21:45 10° S 20:25:36 68° E 20:29:29 10° NNE
Okean 3 Rocket 3.7 20:21:55 10° N 20:26:15 55° E 20:30:35 10° SSE
ALOS 2.2 20:23:49 10° SSE 20:28:28 73° ENE 20:33:07 10° N
Helios 1A 4.5 20:26:17 12° ESE 20:28:37 18° ENE 20:31:30 10° NNE
Cosmos 1833 Rocket 3.5 20:25:30 10° N 20:30:28 31° ENE 20:34:47 13° ESE
Abrixas 3.0 20:31:31 10° NW 20:34:12 38° NE 20:35:43 20° E
Cosmos 2278 Rocket 3.8 20:31:14 10° SW 20:36:29 38° WNW 20:41:46 10° N
RESURS DK-1 3.7 20:34:02 10° NW 20:37:57 42° WSW 20:41:50 10° S
Tiangong 1 2.4 20:35:27 10° W 20:38:06 31° SW 20:40:25 12° SSE
ATLAS 5 CENTAUR R/B 1.6 20:34:26 10° SSW 20:39:01 82° ESE 20:43:57 10° NNE
Cosmos 1125 Rocket 3.6 20:35:20 10° SSW 20:40:30 79° WNW 20:45:45 10° NNE
SeaSat 1 2.5 20:36:16 10° SE 20:41:07 61° ENE 20:45:59 10° NNW
PSLV R/B 4.2 20:39:15 10° SSW 20:41:58 27° SE 20:42:49 23° ESE
Cosmos 1733 3.9 20:38:40 10° SSE 20:42:07 32° E 20:45:37 10° NNE
Cosmos 1470 3.3 20:40:03 10° SSE 20:43:43 37° E 20:47:24 10° NNE
Yuri Rocket 4.4 20:40:04 10° WSW 20:43:57 28° SSW 20:46:41 15° SE
GPS 2-05 Rocket1 3.1 20:42:32 10° W 20:46:04 67° N 20:48:14 22° ENE
Cosmos-2242 3.2 20:42:20 10° SSE 20:46:22 44° E 20:50:25 10° NNE
Geosat 4.0 20:42:25 10° NNE 20:47:21 56° ESE 20:52:16 10° S
Cosmos 1048 Rocket 4.1 20:42:23 10° N 20:47:23 51° ENE 20:51:40 14° SE
OAO 2 Rocket 3.8 20:43:27 10° SW 20:48:20 44° SSE 20:51:18 22° E
Cosmos 1766 Rocket 3.9 20:44:25 10° N 20:48:42 43° E 20:52:21 13° SSE
GP-B 3.4 20:45:41 10° SSE 20:49:52 44° E 20:54:06 10° NNE
HJ-1C 4.1 20:49:00 10° S 20:52:20 55° W 20:55:41 10° NNW
Cosmos 2297 4.3 20:49:02 10° SSW 20:54:39 62° WNW 21:00:21 10° NNE
SJ-6B 4.4 20:51:50 10° SSW 20:55:15 34° W 20:58:41 10° NNW
USA 186 3.3 20:58:06 15° NNE 20:58:06 15° NNE 20:58:39 10° N
H-2A R/B 2.9 20:53:23 10° S 20:57:15 78° WSW 21:01:12 10° NNW
Resurs 01 Rocket 1.7 20:54:58 10° S 20:59:23 81° WSW 21:03:49 10° NNW
CZ-4B DEB 4.5 21:01:12 19° NE 21:01:12 19° NE 21:02:35 10° NNE
Cosmos 1340 Rocket 3.4 20:58:28 10° NNE 21:02:09 34° ENE 21:02:28 34° E
ISS -1.6 21:07:03 10° W 21:09:47 25° NW 21:12:33 10° NNE
Cosmos 2082 Rocket 2.1 21:05:09 10° NNW 21:10:51 81° ENE 21:14:42 21° SSE
Cosmos 2100 Rocket 3.9 21:06:22 10° S 21:12:39 78° E 21:19:01 10° N
Meteor 1-29 2.8 21:12:23 10° NNE 21:15:52 71° ESE 21:16:42 48° S
SAR-Lupe-4 3.4 21:16:29 56° SSE 21:17:10 79° ENE 21:20:46 10° N
Meteor 1-16 Rocket 4.5 21:13:19 10° SSE 21:18:53 49° E 21:24:32 10° NNE
Cosmos 1743 Rocket 3.9 21:15:36 10° N 21:19:41 43° ENE 21:19:41 43° ENE
Cosmos 1271 Rocket 3.4 21:19:02 10° SSW 21:22:58 59° W 21:26:58 10° N
Delta 128 4.3 21:20:08 10° WSW 21:24:19 37° S 21:24:46 36° S
COSMOS 2487 3.2 21:22:10 10° NNW 21:25:38 52° WSW 21:26:45 36° SSW
Aurora 2 Rocket 4.0 21:20:54 10° WSW 21:27:39 37° S 21:28:56 33° SSE
H-2A R/B 4.0 21:22:54 10° WSW 21:28:45 70° S 22:46:51 10° ESE
H-2A R/B 4.0 21:22:53 10° WSW 21:28:45 70° S 22:46:51 10° ESE
Cosmos 2251 Rocket 4.2 21:24:04 10° N 21:28:42 36° ENE 21:28:42 36° ENE
Cosmos 1674 3.7 21:30:51 10° NNW 21:34:28 45° W 21:36:15 26° SSW
SAR-Lupe-1 4.4 21:36:02 65° W 21:36:02 65° W 21:39:28 10° NNW
Cosmos 158 Rocket 4.4 21:31:03 10° NNW 21:36:10 62° WSW 21:39:05 26° S
Cosmos 1802 Rocket 3.9 21:30:21 10° S 21:36:28 86° W 21:42:40 10° N
USA 215 3.1 21:30:49 10° NE 21:37:21 77° SE 21:43:52 10° SW
Cosmos 1939 Rocket 3.5 21:42:57 48° N 21:42:57 48° N 21:46:03 10° N
Helios 1B rocket 3.9 21:41:54 10° N 21:45:42 36° WNW 21:49:28 10° SW
SJ-11-01 4.2 21:48:14 88° W 21:48:14 88° W 21:52:59 10° NNW
Cosmos 1842 Rocket 3.8 21:50:28 69° NW 21:50:28 69° NW 21:54:33 10° N
Lacrosse 5 rocket 2.7 21:51:59 10° NW 21:54:09 32° NNW 21:54:09 32° NNW
Cosmos 2369 Rocket 4.3 22:01:47 14° NNE 22:01:47 14° NNE 22:02:30 10° NNE
Cosmos 494 Rocket 4.3 21:54:58 10° NNW 21:59:01 55° N 21:59:01 55° N
Envisat 3.7 22:08:42 47° WSW 22:09:18 49° W 22:14:14 10° NNW
Cosmos 1833 Rocket 4.3 22:09:28 10° NW 22:14:14 29° WSW 22:16:34 22° SW
ERS-1 Rocket 4.0 22:23:16 41° NNW 22:23:16 41° NNW 22:26:31 10° NNW
H-2A R/B 4.4 22:31:01 15° NNE 22:31:01 15° NNE 22:31:57 10° N
CZ-3 Stage 3 3.3 22:17:57 10° W 22:37:49 62° SW 22:37:49 62° SW
